Aua Island Airport


Codes: AUI/AUI
Name: Aua Island Airport
City: Aua Island
Country: Papua New Guinea
Elevation: 4 ft.

Photos at Aua Island Airport


   Photos courtesy of SpottingLog. You can add your own sightings and photos by signing up for a free trial today.



No photos found.

Weather at Aua Island Airport


Time (UTC)DescriptionTempratureWindCloud coverageVisibilityPressureHumidity
15-Apr-2024 18:00Moderate Rain28°C4 mph, N98%8823m1009hPa76%
15-Apr-2024 21:00Moderate Rain28°C4 mph, E99%6888m1010hPa74%
16-Apr-2024 00:00Light Rain27°C4 mph, SE100%10000m1011hPa86%
16-Apr-2024 03:00Moderate Rain28°C0 mph, NW100%10000m1009hPa73%
16-Apr-2024 06:00Light Rain29°C9 mph, NE96%10000m1007hPa74%
16-Apr-2024 09:00Light Rain27°C9 mph, NE100%10000m1009hPa87%
16-Apr-2024 12:00Light Rain28°C11 mph, NE100%10000m1010hPa79%
16-Apr-2024 15:00Light Rain28°C11 mph, NE99%10000m1008hPa79%
16-Apr-2024 18:00Light Rain28°C9 mph, NE82%10000m1007hPa80%
16-Apr-2024 21:00Moderate Rain28°C7 mph, NE41%9018m1009hPa79%
17-Apr-2024 00:00Light Rain29°C7 mph, NE63%10000m1010hPa72%
17-Apr-2024 03:00Light Rain29°C4 mph, NE100%10000m1008hPa70%
17-Apr-2024 06:00Light Rain29°C4 mph, N100%10000m1006hPa70%
17-Apr-2024 09:00Light Rain29°C7 mph, N100%10000m1008hPa72%
17-Apr-2024 12:00Broken Clouds29°C4 mph, NE82%10000m1009hPa69%
17-Apr-2024 15:00Broken Clouds29°C7 mph, N61%10000m1008hPa73%
17-Apr-2024 18:00Light Rain28°C7 mph, N62%4332m1007hPa78%
17-Apr-2024 21:00Light Rain28°C4 mph, N53%10000m1009hPa74%
18-Apr-2024 00:00Light Rain28°C9 mph, N67%9864m1010hPa74%
18-Apr-2024 03:00Moderate Rain28°C11 mph, N73%7135m1008hPa79%
18-Apr-2024 06:00Moderate Rain28°C11 mph, N85%5487m1007hPa79%
18-Apr-2024 09:00Moderate Rain28°C11 mph, NW100%10000m1008hPa79%
18-Apr-2024 12:00Light Rain28°C11 mph, NW99%10000m1010hPa78%
18-Apr-2024 15:00Light Rain28°C9 mph, NW100%10000m1009hPa78%
18-Apr-2024 18:00Light Rain28°C9 mph, NW100%10000m1008hPa79%
18-Apr-2024 21:00Light Rain28°C7 mph, NW100%8655m1009hPa77%
19-Apr-2024 00:00Light Rain27°C4 mph, NW83%10000m1011hPa79%
19-Apr-2024 03:00Moderate Rain28°C4 mph, SW92%10000m1009hPa71%
19-Apr-2024 06:00Broken Clouds29°C7 mph, SW56%10000m1007hPa70%
19-Apr-2024 09:00Broken Clouds29°C4 mph, SW60%10000m1009hPa71%
19-Apr-2024 12:00Scattered Clouds28°C2 mph, W44%10000m1010hPa71%
19-Apr-2024 15:00Broken Clouds28°C2 mph, NW84%10000m1009hPa72%
19-Apr-2024 18:00Overcast Clouds28°C2 mph, NE91%10000m1009hPa72%
19-Apr-2024 21:00Scattered Clouds28°C4 mph, NE41%10000m1010hPa72%
20-Apr-2024 00:00Scattered Clouds28°C2 mph, SE27%10000m1011hPa71%
20-Apr-2024 03:00Broken Clouds29°C4 mph, E68%10000m1009hPa70%
20-Apr-2024 06:00Broken Clouds29°C4 mph, E75%10000m1007hPa68%
20-Apr-2024 09:00Broken Clouds29°C7 mph, NE79%10000m1009hPa69%
20-Apr-2024 12:00Overcast Clouds29°C7 mph, NE86%10000m1010hPa70%
20-Apr-2024 15:00Overcast Clouds29°C4 mph, NE100%10000m1010hPa71%